Time,TemperatureF,DewpointF,PressureIn,WindDirection,WindDirectionDegrees,WindSpeedMPH,WindSpeedGustMPH,Humidity,HourlyPrecipIn,Conditions,Clouds,dailyrainin,SoftwareType,DateUTC
2014-08-30 00:04:00,60.4,59.9,29.26,SE,135,0.0,0.0,98,0.00,CLR,,0.00,WeatherDisplay:10.37,2014-08-30 05:04:00,
2014-08-30 00:09:00,60.4,59.9,29.26,SE,135,0.0,0.0,98,0.00,CLR,,0.00,WeatherDisplay:10.37,2014-08-30 05:09:00,
2014-08-30 00:14:00,60.6,60.1,29.24,SE,135,0.0,0.0,98,0.00,CLR,,0.00,WeatherDisplay:10.37,2014-08-30 05:14:00,
2014-08-30 00:19:00,60.6,60.1,29.24,SE,135,0.0,0.0,98,0.00,CLR,,0.00,WeatherDisplay:10.37,2014-08-30 05:19:00,
2014-08-30 00:24:00,60.8,60.2,29.24,SE,135,0.0,0.0,98,0.00,CLR,,0.00,WeatherDisplay:10.37,2014-08-30 05:24:00,
2014-08-30 00:29:00,60.8,60.2,29.24,SE,135,0.0,0.0,98,0.00,CLR,,0.00,WeatherDisplay:10.37,2014-08-30 05:29:00,
2014-08-30 00:34:00,60.6,60.1,29.24,SE,135,0.0,0.0,98,0.00,CLR,,0.00,WeatherDisplay:10.37,2014-08-30 05:34:00,
2014-08-30 00:39:00,60.6,60.1,29.24,SE,135,0.0,0.0,98,0.00,CLR,,0.00,WeatherDisplay:10.37,2014-08-30 05:39:00,
2014-08-30 00:44:00,60.6,60.1,29.24,SE,135,0.0,0.0,98,0.00,CLR,,0.00,WeatherDisplay:10.37,2014-08-30 05:44:00,
2014-08-30 00:49:00,60.6,60.1,29.24,SE,135,0.0,0.0,98,0.00,CLR,,0.00,WeatherDisplay:10.37,2014-08-30 05:49:00,
2014-08-30 00:54:00,60.6,60.1,29.24,SE,135,0.0,0.0,98,0.00,CLR,,0.00,WeatherDisplay:10.37,2014-08-30 05:54:00,
2014-08-30 00:59:00,60.6,60.1,29.26,SSW,202,0.0,0.0,98,0.00,CLR,,0.00,WeatherDisplay:10.37,2014-08-30 05:59:00,
2014-08-30 01:04:00,60.6,60.1,29.26,SSW,202,0.0,0.0,98,0.00,CLR,,0.00,WeatherDisplay:10.37,2014-08-30 06:04:00,
2014-08-30 01:09:00,60.6,60.1,29.26,SSW,202,0.0,0.0,98,0.00,CLR,,0.00,WeatherDisplay:10.37,2014-08-30 06:09:00,
2014-08-30 01:14:00,60.6,60.1,29.24,SSW,202,0.0,0.0,98,0.00,CLR,,0.00,WeatherDisplay:10.37,2014-08-30 06:14:00,
2014-08-30 01:19:00,60.6,60.1,29.24,NNW,338,0.0,0.0,98,0.00,CLR,,0.00,WeatherDisplay:10.37,2014-08-30 06:19:00,
2014-08-30 01:24:00,60.4,59.9,29.24,NNW,338,0.0,0.0,98,0.00,CLR,,0.00,WeatherDisplay:10.37,2014-08-30 06:24:00,
2014-08-30 01:29:00,60.3,59.7,29.26,NNW,338,0.0,0.0,98,0.00,CLR,,0.00,WeatherDisplay:10.37,2014-08-30 06:29:00,
2014-08-30 01:34:00,60.1,59.5,29.26,NNW,338,0.0,0.0,98,0.00,CLR,,0.00,WeatherDisplay:10.37,2014-08-30 06:34:00,
2014-08-30 01:39:00,59.9,59.3,29.26,NNW,338,0.0,0.0,98,0.00,CLR,,0.00,WeatherDisplay:10.37,2014-08-30 06:39:00,
2014-08-30 01:44:00,59.9,59.3,29.26,NNW,338,0.0,0.0,98,0.00,CLR,,0.00,WeatherDisplay:10.37,2014-08-30 06:44:00,
2014-08-30 01:49:00,59.7,59.2,29.26,NNW,338,0.0,0.0,98,0.00,CLR,,0.00,WeatherDisplay:10.37,2014-08-30 06:49:00,
2014-08-30 01:54:00,59.7,59.2,29.26,NNW,338,0.0,0.0,98,0.00,CLR,,0.00,WeatherDisplay:10.37,2014-08-30 06:54:00,
2014-08-30 01:59:00,59.5,59.0,29.26,NNW,338,0.0,0.0,98,0.00,CLR,,0.00,WeatherDisplay:10.37,2014-08-30 06:59:00,
2014-08-30 02:04:00,59.4,58.8,29.26,NNW,338,0.0,0.0,98,0.00,CLR,,0.00,WeatherDisplay:10.37,2014-08-30 07:04:00,
2014-08-30 02:09:00,59.4,58.8,29.26,NNW,338,0.0,0.0,98,0.00,CLR,,0.00,WeatherDisplay:10.37,2014-08-30 07:09:00,
2014-08-30 02:14:00,59.2,58.6,29.26,NNW,338,0.0,0.0,98,0.00,CLR,,0.00,WeatherDisplay:10.37,2014-08-30 07:14:00,
2014-08-30 02:19:00,59.2,58.6,29.26,NNW,338,0.0,0.0,98,0.00,CLR,,0.00,WeatherDisplay:10.37,2014-08-30 07:19:00,
2014-08-30 02:24:00,59.2,58.6,29.26,NNW,338,0.0,0.0,98,0.00,CLR,,0.00,WeatherDisplay:10.37,2014-08-30 07:24:00,
2014-08-30 02:29:00,59.2,58.6,29.26,NNW,338,0.0,0.0,98,0.00,CLR,,0.00,WeatherDisplay:10.37,2014-08-30 07:29:00,
2014-08-30 02:34:00,59.2,58.6,29.26,NNW,338,0.0,0.0,98,0.00,CLR,,0.00,WeatherDisplay:10.37,2014-08-30 07:34:00,
2014-08-30 02:39:00,59.2,58.6,29.26,NNW,338,0.0,0.0,98,0.00,CLR,,0.00,WeatherDisplay:10.37,2014-08-30 07:39:00,
2014-08-30 02:44:00,59.2,58.6,29.26,NNW,338,0.0,0.0,98,0.00,CLR,,0.00,WeatherDisplay:10.37,2014-08-30 07:44:00,
2014-08-30 02:49:00,59.0,58.4,29.26,NNW,338,0.0,0.0,98,0.00,CLR,,0.00,WeatherDisplay:10.37,2014-08-30 07:49:00,
2014-08-30 02:54:00,59.0,58.4,29.26,NNW,338,0.0,0.0,98,0.00,CLR,,0.00,WeatherDisplay:10.37,2014-08-30 07:54:00,
2014-08-30 02:59:00,59.0,58.4,29.26,NNW,338,0.0,0.0,98,0.00,CLR,,0.00,WeatherDisplay:10.37,2014-08-30 07:59:00,
2014-08-30 03:04:00,58.8,58.3,29.26,NNW,338,0.0,0.0,98,0.00,CLR,,0.00,WeatherDisplay:10.37,2014-08-30 08:04:00,
2014-08-30 03:09:00,58.8,58.3,29.26,NNW,338,0.0,0.0,98,0.00,CLR,,0.00,WeatherDisplay:10.37,2014-08-30 08:09:00,
2014-08-30 03:14:00,58.6,58.1,29.26,NNW,338,0.0,0.0,98,0.00,CLR,,0.00,WeatherDisplay:10.37,2014-08-30 08:14:00,
2014-08-30 03:19:00,58.6,58.1,29.26,NNW,338,0.0,0.0,98,0.00,CLR,,0.00,WeatherDisplay:10.37,2014-08-30 08:19:00,
2014-08-30 03:24:00,58.5,57.9,29.26,NNW,338,0.0,0.0,98,0.00,CLR,,0.00,WeatherDisplay:10.37,2014-08-30 08:24:00,
2014-08-30 03:29:00,58.5,57.9,29.26,NNW,338,0.0,0.0,98,0.00,CLR,,0.00,WeatherDisplay:10.37,2014-08-30 08:29:00,
2014-08-30 03:34:00,58.5,57.9,29.26,NNW,338,0.0,0.0,98,0.00,CLR,,0.00,WeatherDisplay:10.37,2014-08-30 08:34:00,
2014-08-30 03:39:00,58.3,57.7,29.26,NNW,338,0.0,0.0,98,0.00,CLR,,0.00,WeatherDisplay:10.37,2014-08-30 08:39:00,
2014-08-30 03:44:00,58.3,57.7,29.26,NNW,338,0.0,0.0,98,0.00,CLR,,0.00,WeatherDisplay:10.37,2014-08-30 08:44:00,
2014-08-30 03:49:00,58.1,57.5,29.26,NNW,338,0.0,0.0,98,0.00,CLR,,0.00,WeatherDisplay:10.37,2014-08-30 08:49:00,
2014-08-30 03:54:00,58.1,57.5,29.26,NNW,338,0.0,0.0,98,0.00,CLR,,0.00,WeatherDisplay:10.37,2014-08-30 08:54:00,